Starlink 30369

operational
NORAD ID: 57781 Int'l Des: 2023-134 Owner: SPXS Country: US Constellation: starlink
LEOCIRCULAR

Über Starlink 30369

Beschreibung wird geladen...

Live-Position

3D-Globus wird geladen...

Nächste Überflüge

Höhenverlauf

Altitude vs Time

uPlot chart will show altitude changes over time

Zweizeiliger Elementsatz

1 57781U 23134L 25351.54486425 .00000350 00000-0 40992-4 0 9991
2 57781 43.0026 283.9274 0001201 276.1719 83.8987 15.02536183127116
Epoch: 17. Dez. 2025 • Age: 21 hours

Aktueller Status

Höhe 558.7 km
Geschwindigkeit 7.59 km/s
Subsatellitenpunkt 17.11°N, 164.92°W
Startdatum 4. Sept. 2023
Alter 2.2 years
Typ internet

Technische Details

Klassifizierung Payload
Masse 730.00 kg
Trockenmasse 700.00 kg
Gesamtmasse 730.00 kg
Länge 0.30 m
Durchmesser 4.10 m
Spannweite 29.00 m
Form Box + pan
Hersteller SPXS
Bus-Typ Starlink V2M
Phasenstatus In Orbit
Besitzer/Staat SPXS/US

Große Konstellationen

Loading constellations...